{"data":{"norad_id":66823,"epoch":"2026-05-25T02:18:29.752416Z","epoch_age_seconds":70669,"freshness":"FRESH","line1":"1 66823U 25280C   26145.09617769 -.00003478  00000+0 -28392-3 0  9995","line2":"2 66823  70.0008 141.6973 0004030 262.8584  97.2117 14.98312071 27524","mean_motion":14.98312071,"eccentricity":0.000403,"inclination_deg":70.0008,"raan_deg":141.6973,"arg_perigee_deg":262.8584,"mean_anomaly_deg":97.2117,"bstar":-0.00028392,"rev_number":2752,"period_min":96.10814915473,"perigee_km":569.31038537163,"apogee_km":574.91228553001,"semimajor_km":6950.2483354508,"source":"CELESTRAK","updated_at":"2026-05-25T13:38:21.333725Z"}}